Meteopurmerend
purmerend
Purmerend - Baaienwijk



My webcam  My webcam


waarschuwing voor Onweer Meer informatie blitzortung!


Regen radar Meer informatie rain snow radar


Bezoek onze andere website:

CandyAppleRed WebdesignWebdesign Purmerend Candy Apple Red

MeteopurmerendBlog

Template documentation
and downloads



Onweer van: 19-06-2019 18:00 tot: 23:00 waarschuwing voor: Onweer niveau: Geel info button
Enkele onweersbuien, mogelijk met hagel en windstoten tot ca. 75 km/uur.Verkeer en buitenactiviteiten kunnen hinder ondervinden.Mijd open water en open gebied, schuil niet onder bomen.Volg weerberichten en waarschuwingen.

15 daagse weersverwachting Bergamo (IT)

  • Overzicht
  • Per uur
  • 15 dagen
  • Extra
  • Vergelijk
  • Kaarten
  • Dagkaart
  • Meer »
  • Info
  • Statistieken
  • Directe link
    Temp 6h Neerslag Wind  
 05:33     21:14    Daglengte: 15:41 Vandaag
20:00
26°
 
1
 05:33     21:14    Daglengte: 15:41 Morgen
02:00
20°
 
1
08:00
21°
 
1
14:00
27°
 
2
20:00
26°
 
1
 05:33     21:14    Daglengte: 15:41 Vrijdag 21 Jun
02:00
19°
 
1
08:00
21°
 
1
14:00
26°
 
2
20:00
25°
 
1
 05:33     21:14    Daglengte: 15:41 Zaterdag 22 Jun
02:00
20°
1.4 mm
3
warningclass
08:00
19°
4.9 mm
1
14:00
23°
6.7 mm
1
warningclass
Locatie info
Region: Lombardia
Latitude: 45.6952°N
Longitude: 9.6695°E
260 masl
Postcode: 24121
Temp/Neerslag /Baro Onweer/Dauwpunt
    Temp Baro 1h Neerslag Dauwpunt Wind UV Bewolking  
 05:33     21:14    Daglengte: 15:41 Vandaag
20:00
26°
1011.3 hPa
46%
19.7°
1
Windvlaag: 1.5 m/s
47%
21:00
25°
1011.7 hPa
14%
19.1°
1
Windvlaag: 1 m/s
48%
22:00
23°
1012.1 hPa
12%
19.1°
1
Windvlaag: 0.8 m/s
18%
23:00
22°
1012.3 hPa
12%
18.4°
1
Windvlaag: -0.3 m/s
7%
 05:33     21:14    Daglengte: 15:41 Morgen
00:00
21°
1012.2 hPa
13%
17.4°
1
Windvlaag: -0.5 m/s
12%
01:00
20°
1012.5 hPa
13%
15.7°
2
Windvlaag: -0.5 m/s
31%
02:00
20°
1012.4 hPa
13%
14.9°
1
Windvlaag: -0.8 m/s
33%
03:00
19°
1012.5 hPa
13%
15.1°
1
Windvlaag: -1.1 m/s
11%
04:00
19°
1012.2 hPa
13%
15.2°
1
Windvlaag: -0.9 m/s
22%
05:00
18°
1012.1 hPa
14%
15.1°
1
Windvlaag: -0.9 m/s
16%
06:00
18°
1012.4 hPa
13%
14.8°
1
Windvlaag: -0.6 m/s
28%
07:00
19°
1012.6 hPa
13%
15.7°
1
Windvlaag: -0.4 m/s
33%
08:00
21°
1012.7 hPa
17%
16.2°
1
Windvlaag: -0.4 m/s
46%
09:00
23°
1012.7 hPa
18%
16.1°
1
Windvlaag: 1.1 m/s
26%
10:00
24°
1012.6 hPa
17%
16.6°
1
Windvlaag: 1.5 m/s
26%
11:00
25°
1012.7 hPa
26%
16.7°
2
Windvlaag: 1.5 m/s
30%
12:00
26°
1012.5 hPa
26%
16.7°
2
Windvlaag: 1.7 m/s
9%
13:00
27°
1012.5 hPa
28%
16.7°
3
Windvlaag: 2 m/s
5%
14:00
27°
1012.3 hPa
30%
16.5°
2
Windvlaag: 2.2 m/s
30%
15:00
28°
1012.0 hPa
30%
15.6°
2
Windvlaag: 2.2 m/s
28%
16:00
27°
1011.7 hPa
24%
15.4°
2
Windvlaag: 1.9 m/s
27%
17:00
28°
1011.4 hPa
23%
15.8°
2
Windvlaag: -0.5 m/s
17%
18:00
28°
1011.2 hPa
20%
15.8°
2
Windvlaag: -0.6 m/s
33%
19:00
27°
1011.4 hPa
21%
17.5°
1
Windvlaag: -0.8 m/s
35%
20:00
26°
1011.6 hPa
18%
16.2°
1
Windvlaag: -0.8 m/s
37%
21:00
25°
1011.8 hPa
13%
16.7°
1
Windvlaag: -0.6 m/s
16%
22:00
23°
1012.4 hPa
14%
17.4°
1
Windvlaag: 0.1 m/s
11%
23:00
22°
1012.8 hPa
13%
16.7°
2
Windvlaag: -0.1 m/s
20%
 05:33     21:14    Daglengte: 15:41 Vrijdag 21 Jun
00:00
21°
1013.2 hPa
13%
16.0°
1
Windvlaag: -0.4 m/s
43%
01:00
20°
1013.5 hPa
13%
15.7°
1
Windvlaag: -0.6 m/s
64%
02:00
19°
1013.6 hPa
13%
15.4°
1
Windvlaag: -0.6 m/s
77%
03:00
19°
1013.5 hPa
13%
14.8°
1
Windvlaag: -0.5 m/s
67%
04:00
19°
1013.5 hPa
13%
14.4°
1
Windvlaag: -0.5 m/s
49%
05:00
18°
1013.7 hPa
13%
14.1°
1
Windvlaag: -0.5 m/s
53%
06:00
19°
1014.0 hPa
13%
13.9°
1
Windvlaag: -0.6 m/s
62%
07:00
19°
1014.3 hPa
20%
14.7°
1
Windvlaag: -0.7 m/s
60%
08:00
21°
1014.6 hPa
16%
16.0°
1
Windvlaag: -0.6 m/s
54%
09:00
22°
1014.7 hPa
78%
16.4°
1
Windvlaag: 0.8 m/s
37%
10:00
24°
1014.7 hPa
68%
16.9°
2
Windvlaag: 1.9 m/s
18%
11:00
25°
1014.8 hPa
72%
16.6°
2
Windvlaag: 1.8 m/s
34%
12:00
25°
1014.9 hPa
73%
17.6°
2
Windvlaag: 1.8 m/s
21% warningclass
13:00
26°
1014.5 hPa
78%
18.2°
2
Windvlaag: 2.2 m/s
11%
14:00
26°
1014.2 hPa
78%
18.6°
2
Windvlaag: 2.3 m/s
15%
15:00
27°
1013.7 hPa
34%
19.1°
2
Windvlaag: 2.4 m/s
28%
16:00
28°
1013.2 hPa
76%
19.3°
2
Windvlaag: 2.5 m/s
38%
17:00
27°
1013.1 hPa
88%
19.3°
2
Windvlaag: 2 m/s
62%
18:00
27°
1012.8 hPa
95%
19.1°
2
Windvlaag: 1.2 m/s
71%
19:00
26°
1013.2 hPa
95%
18.9°
2
Windvlaag: 0.3 m/s
42%
20:00
25°
1013.4 hPa
25%
19.9°
1
Windvlaag: -0.4 m/s
48%
21:00
24°
1013.6 hPa
22%
19.6°
1
Windvlaag: -0.7 m/s
67%
22:00
23°
1013.9 hPa
20%
18.9°
1
Windvlaag: -0.9 m/s
68%
23:00
22°
1014.1 hPa
20%
18.1°
2
Windvlaag: -1 m/s
29%
 05:33     21:14    Daglengte: 15:41 Zaterdag 22 Jun
00:00
22°
1014.4 hPa
43%
16.6°
2
Windvlaag: -0.8 m/s
61%
01:00
21°
1015.0 hPa 0.3 mm
100%
16.2°
2
Windvlaag: 1.7 m/s
66% warningclass
02:00
20°
1015.0 hPa 1.1 mm
100%
16.2°
3
Windvlaag: 1.2 m/s
86% warningclass
03:00
19°
1014.9 hPa 0.8 mm
91%
15.4°
2
Windvlaag: -0.2 m/s
87% warningclass
04:00
19°
1014.8 hPa
100%
15.2°
2
Windvlaag: -0.5 m/s
84%
05:00
19°
1014.9 hPa 2.3 mm
100%
16.1°
1
Windvlaag: -0.8 m/s
79%
06:00
19°
1014.4 hPa
53%
15.9°
2
Windvlaag: -0.8 m/s
70%
07:00
19°
1014.6 hPa 0.8 mm
100%
16.1°
2
Windvlaag: -0.2 m/s
64% warningclass
08:00
19°
1015.6 hPa 1.0 mm
99%
16.9°
1
Windvlaag: -0.1 m/s
79%
09:00
20°
1015.6 hPa 0.3 mm
96%
16.9°
1
Windvlaag: 3.1 m/s
73%
10:00
21°
1015.6 hPa 0.4 mm
100%
16.8°
2
Windvlaag: 1.9 m/s
79%
11:00
21°
1015.5 hPa 0.8 mm
100%
16.7°
1
Windvlaag: 1.5 m/s
78% warningclass
12:00
22°
1015.4 hPa 1.6 mm
100%
16.8°
1
Windvlaag: 3.8 m/s
86% warningclass
13:00
23°
1015.3 hPa 1.3 mm
100%
16.5°
2
Windvlaag: 4.9 m/s
76% warningclass
14:00
23°
1015.2 hPa 2.3 mm
100%
16.5°
1
Windvlaag: 2.7 m/s
83% warningclass
15:00
22°
1015.2 hPa 1.5 mm
100%
16.2°
1
Windvlaag: 5.5 m/s
85% warningclass
16:00
22°
1015.0 hPa 1.9 mm
97%
16.4°
1
Windvlaag: 4.5 m/s
85% warningclass
17:00
21°
1014.5 hPa 2.2 mm
89%
16.6°
1
Windvlaag: 3.5 m/s
86% warningclass
18:00
21°
1014.5 hPa
94%
16.7°
1
Windvlaag: 2.8 m/s
78%
19:00
20°
1014.4 hPa 2.7 mm
97%
16.8°
1
Windvlaag: 2.9 m/s
73%
Temp/Neerslag /Baro Onweer/Dauwpunt
    Temp Baro Neerslag Dauwpunt Wind Bewolking  
 05:33     21:14    Daglengte: 15:41 Vandaag
20:00
26°
1011.3 hPa   19.7°
1
47%
23:00
22°
1012.3 hPa   18.4°
1
7%
 05:33     21:14    Daglengte: 15:41 Morgen
02:00
20°
1012.4 hPa   14.9°
1
33%
05:00
18°
1012.1 hPa   15.1°
1
16%
08:00
21°
1012.7 hPa   16.2°
1
46%
11:00
25°
1012.7 hPa   16.7°
2
30%
14:00
27°
1012.3 hPa   16.5°
2
30%
17:00
28°
1011.4 hPa   15.8°
2
17%
20:00
26°
1011.6 hPa   16.2°
1
37%
23:00
22°
1012.8 hPa   16.7°
2
20%
 05:33     21:14    Daglengte: 15:41 Vrijdag 21 Jun
02:00
19°
1013.6 hPa   15.4°
1
77%
05:00
18°
1013.7 hPa   14.1°
1
53%
08:00
21°
1014.6 hPa   16.0°
1
54%
11:00
25°
1014.8 hPa   16.6°
2
34%
14:00
26°
1014.2 hPa   18.6°
2
15%
17:00
27°
1013.1 hPa   19.3°
2
62%
20:00
25°
1013.4 hPa   19.9°
1
48%
23:00
22°
1014.1 hPa   18.1°
2
29%
 05:33     21:14    Daglengte: 15:41 Zaterdag 22 Jun
02:00
20°
1015.0 hPa 1.4 mm 16.2°
3
86% warningclass
05:00
19°
1014.9 hPa 3.2 mm 16.1°
1
79%
08:00
19°
1015.6 hPa 1.7 mm 16.9°
1
79%
11:00
21°
1015.5 hPa 1.5 mm 16.7°
1
78% warningclass
14:00
23°
1015.2 hPa 5.2 mm 16.5°
1
83% warningclass
17:00
21°
1014.5 hPa 5.6 mm 16.6°
1
86% warningclass
20:00
20°
1014.4 hPa 7.8 mm 16.9°
1
60%
23:00
18°
1015.0 hPa 24.8 mm 15.7°
1
71%
 05:34     21:14    Daglengte: 15:40 Zondag 23 Jun
02:00
17°
1015.2 hPa 24.8 mm 15.1°
1
60%
05:00
18°
1015.2 hPa 24.8 mm 15.0°
1
34%
08:00
19°
1015.2 hPa 24.8 mm 15.3°
1
9%
11:00
22°
1015.5 hPa 24.8 mm 16.7°
1
20%
14:00
25°
1015.8 hPa 24.8 mm 17.8°
2
32%
17:00
25°
1015.7 hPa 24.8 mm 18.1°
1
23%
20:00
25°
1015.7 hPa 24.8 mm 18.5°
1
14%
23:00
21°
1017.1 hPa 24.8 mm 17.5°
1
13%
 05:34     21:15    Daglengte: 15:41 Maandag 24 Jun
02:00
18°
1018.4 hPa 24.8 mm 16.3°
2
12%
05:00
20°
1018.9 hPa 24.8 mm 17.2°
1
7%
08:00
23°
1019.3 hPa 24.8 mm 18.4°
0
2%
11:00
25°
1019.4 hPa 24.8 mm 18.4°
1
9%
14:00
27°
1019.5 hPa 24.8 mm 18.1°
2
16%
17:00
27°
1019.3 hPa 24.8 mm 19.1°
1
13%
20:00
26°
1019.2 hPa 24.8 mm 19.9°
1
10%
23:00
23°
1020.6 hPa 24.8 mm 18.9°
1
14%
 05:34     21:15    Daglengte: 15:41 Dinsdag 25 Jun
02:00
20°
1021.9 hPa 24.8 mm 17.7°
2
18%
05:00
22°
1022.0 hPa 24.8 mm 18.5°
2
19%
08:00
24°
1022.1 hPa 24.8 mm 19.3°
1
21%
11:00
26°
1022.0 hPa 24.8 mm 19.5°
2
52%
14:00
29°
1021.8 hPa 24.8 mm 19.5°
2
83%
17:00
28°
1021.4 hPa 24.8 mm 20.0°
1
44%
20:00
27°
1021.1 hPa 24.8 mm 20.5°
1
5%
23:00
24°
1022.3 hPa 24.8 mm 19.1°
1
8%
 05:35     21:15    Daglengte: 15:40 Woensdag 26 Jun
02:00
22°
1023.2 hPa 24.8 mm 17.6°
1
11%
05:00
23°
1023.0 hPa 24.8 mm 18.8°
1
11%
08:00
25°
1022.8 hPa 24.8 mm 20.1°
1
10%
11:00
27°
1022.7 hPa 24.8 mm 20.2°
2
13%
14:00
29°
1022.6 hPa 24.8 mm 19.7°
2
17%
17:00
29°
1021.8 hPa   21.3°
1
17%
20:00
28°
1021.1 hPa 49.6 mm 22.8°
1
17%
 05:35     21:15    Daglengte: 15:40 Donderdag 27 Jun
02:00
22°
1021.6 hPa 50.0 mm 19.5°
2
4%
08:00
26°
1020.7 hPa 50.1 mm 21.4°
1
0%
14:00
31°
1019.0 hPa 50.1 mm 21.7°
2
0%
20:00
30°
1016.3 hPa 50.4 mm 23.0°
0
9%
 05:35     21:15    Daglengte: 15:40 Vrijdag 28 Jun
02:00
23°
1017.5 hPa 50.9 mm 19.3°
2
0%
08:00
27°
1017.0 hPa 50.9 mm 22.2°
1
0%
14:00
33°
1016.1 hPa 50.9 mm 21.7°
2
9%
20:00
31°
1014.2 hPa 52.0 mm 25.6°
0
4%
 05:36     21:14    Daglengte: 15:38 Zaterdag 29 Jun
02:00
23°
1015.0 hPa 57.5 mm 20.2°
2
0%
08:00
25°
1013.6 hPa 58.4 mm 19.6°
0
1%
14:00
33°
1013.9 hPa   18.1°
2
13%
20:00
30°
1014.1 hPa 0.2 mm 22.0°
1
18%
 05:37     21:14    Daglengte: 15:37 Zondag 30 Jun
02:00
22°
1015.8 hPa   17.8°
1
30%
08:00
25°
1015.6 hPa   19.0°
1
15%
14:00
31°
1013.9 hPa   18.4°
2
10%
20:00
29°
1013.8 hPa 0.4 mm 22.1°
1
21%
 05:37     21:14    Daglengte: 15:37 Maandag 01 Jul
02:00
21°
1015.4 hPa 0.4 mm 17.6°
1
32%
08:00
24°
1014.9 hPa 0.3 mm 18.6°
1
18%
14:00
30°
1013.2 hPa 0.4 mm 18.5°
2
10%
20:00
28°
1013.2 hPa 1.0 mm 22.0°
1
23%
 05:38     21:14    Daglengte: 15:36 Dinsdag 02 Jul
02:00
21°
1014.8 hPa 1.3 mm 17.2°
1
31%
08:00
23°
1014.6 hPa 0.3 mm 18.3°
2
18%
14:00
29°
1012.8 hPa 0.6 mm 18.1°
1
10%
20:00
27°
1013.1 hPa 1.1 mm 21.1°
0
18%
 05:38     21:14    Daglengte: 15:36 Woensdag 03 Jul
02:00
20°
1014.7 hPa 1.0 mm 16.6°
2
27%
08:00
22°
1014.6 hPa 0.3 mm 17.5°
2
19%
14:00
28°
1013.0 hPa 1.0 mm 17.7°
2
14%
20:00
27°
1013.4 hPa 1.4 mm 20.3°
1
21%
 05:39     21:13    Daglengte: 15:34 Donderdag 04 Jul
02:00
19°
1015.2 hPa 0.7 mm 15.8°
2
26%
08:00
22°
1015.5 hPa 0.1 mm 16.9°
2
14%
14:00
29°
1014.6 hPa 0.3 mm 16.1°
2
9%
  CAPE Lifted Index Hail Supercell Tornado SRH 3km CL BTM PRES CL TOP PRES Swiss DWD icon SMHI TS
 05:33     21:14    Daglengte: 15:41 Vandaag
20:00 737 J/kg -3.5 K 0 % 0 % 0 % 0 m²/s² 0 0 -2 3
21:00 317 J/kg -3.9 K 0 % 0 % 0 % 0 m²/s² 0 0 -2.58 3
22:00 78 J/kg -4.4 K 0 % 0 % 0 % 0 m²/s² 0 0 -3.02 3
23:00 8 J/kg -3.6 K 0 % 0 % 0 % 0 m²/s² 0 0 -2.34 0
 05:33     21:14    Daglengte: 15:41 Morgen
00:00 0 J/kg -2.2 K 0 % 0 % 0 % 0 m²/s² 0 0 -0.46 0
01:00 0 J/kg -1.3 K 0 % 0 % 0 % 0 m²/s² 0 0 1.25 0
02:00 0 J/kg 0.0 K 0 % 0 % 0 % 0 m²/s² 0 0 3.3 3
03:00 0 J/kg 0.9 K 0 % 0 % 0 % 0 m²/s² 0 0 4.2 3
04:00 0 J/kg 1.2 K 0 % 0 % 0 % 0 m²/s² 0 0 4.38 3
05:00 0 J/kg 0.2 K 0 % 0 % 0 % 0 m²/s² 0 0 4.25 2
06:00 0 J/kg -0.5 K 0 % 0 % 0 % 0 m²/s² 0 0 3.43 3
07:00 0 J/kg -1.4 K 0 % 0 % 0 % 0 m²/s² 0 0 2.65 3
08:00 0 J/kg -2.3 K 0 % 0 % 0 % 0 m²/s² 0 0 1.42 3
09:00 0 J/kg -2.8 K 0 % 0 % 0 % 0 m²/s² 0 0 0.83 2
10:00 30 J/kg -3.1 K 0 % 0 % 0 % 0 m²/s² 0 0 0.35 2
11:00 205 J/kg -3.0 K 0 % 0 % 0 % 0 m²/s² 0 0 0.36 3
12:00 522 J/kg -3.4 K 0 % 0 % 0 % 0 m²/s² 0 0 -0.13 1
13:00 663 J/kg -3.1 K 0 % 0 % 0 % 0 m²/s² 0 0 -0.01 2
14:00 606 J/kg -2.6 K 0 % 0 % 0 % 0 m²/s² 0 0 0.1 3
15:00 466 J/kg -1.9 K 0 % 0 % 0 % 0 m²/s² 0 0 -0.04 3
16:00 185 J/kg -1.1 K 0 % 0 % 0 % 0 m²/s² 0 0 0.22 3
17:00 1 J/kg 0.1 K 0 % 0 % 0 % 0 m²/s² 0 0 1.96 3
18:00 0 J/kg 0.1 K 0 % 0 % 0 % 0 m²/s² 0 0 1.72 3
19:00 128 J/kg -1.0 K 0 % 0 % 0 % 0 m²/s² 0 0 0.5 3
20:00 418 J/kg -2.3 K 0 % 0 % 0 % 0 m²/s² 0 0 -1.25 3
21:00 381 J/kg -2.6 K 0 % 0 % 0 % 0 m²/s² 0 0 -1.58 1
22:00 369 J/kg -3.4 K 0 % 0 % 0 % 0 m²/s² 0 0 -2.44 0
23:00 193 J/kg -3.5 K 0 % 0 % 0 % 0 m²/s² 0 0 -2.33 0
 05:33     21:14    Daglengte: 15:41 Vrijdag 21 Jun
00:00 6 J/kg -2.1 K 0 % 0 % 0 % 0 m²/s² 0 0 -0.54 3
01:00 0 J/kg -2.1 K 0 % 0 % 0 % 0 m²/s² 0 0 -0.87 3
02:00 0 J/kg -1.7 K 0 % 0 % 0 % 0 m²/s² 0 0 -0.2 3
03:00 0 J/kg -2.3 K 0 % 0 % 0 % 0 m²/s² 0 0 -0.8 3
04:00 0 J/kg -2.3 K 0 % 0 % 0 % 0 m²/s² 0 0 -0.62 3
05:00 0 J/kg -2.6 K 0 % 0 % 0 % 0 m²/s² 0 0 -1.1 3
06:00 0 J/kg -2.7 K 0 % 0 % 0 % 0 m²/s² 0 0 -1.2 3
07:00 0 J/kg -2.6 K 0 % 0 % 0 % 0 m²/s² 0 0 -0.92 3
08:00 0 J/kg -2.7 K 0 % 0 % 0 % 0 m²/s² 0 0 -1.05 3
09:00 0 J/kg -1.8 K 0 % 0 % 0 % 0 m²/s² 0 0 -0.21 3
10:00 41 J/kg -0.9 K 0 % 0 % 0 % 0 m²/s² 0 0 0.36 2
11:00 178 J/kg -1.0 K 0 % 0 % 0 % 0 m²/s² 0 0 0.11 80
12:00 367 J/kg -1.4 K 0 % 0 % 0 % 0 m²/s² 0 0 -0.17 95
13:00 510 J/kg -1.9 K 0 % 0 % 0 % 0 m²/s² 0 0 -0.34 80
14:00 651 J/kg -2.4 K 0 % 0 % 0 % 0 m²/s² 0 0 -0.33 1
15:00 796 J/kg -2.9 K 0 % 0 % 0 % 0 m²/s² 0 0 -0.11 2
16:00 909 J/kg -3.0 K 0 % 0 % 0 % 0 m²/s² 0 0 -0.03 1
17:00 861 J/kg -2.7 K 0 % 0 % 0 % 0 m²/s² 0 0 0.36 3
18:00 835 J/kg -3.0 K 0 % 0 % 0 % 0 m²/s² 0 0 -0.03 3
19:00 885 J/kg -3.3 K 0 % 0 % 0 % 0 m²/s² 0 0 -1.23 3
20:00 884 J/kg -3.6 K 0 % 0 % 0 % 0 m²/s² 0 0 -1.8 3
21:00 842 J/kg -3.3 K 0 % 0 % 0 % 0 m²/s² 0 0 -1.41 3
22:00 658 J/kg -3.5 K 0 % 0 % 0 % 0 m²/s² 0 0 -1.88 3
23:00 666 J/kg -4.6 K 0 % 0 % 0 % 0 m²/s² 0 0 -3.16 3
 05:33     21:14    Daglengte: 15:41 Zaterdag 22 Jun
00:00 736 J/kg -4.7 K 0 % 0 % 0 % 0 m²/s² 0 0 -3.47 3
01:00 476 J/kg -4.8 K 0 % 0 % 0 % 0 m²/s² 0 0 -3.06 3
02:00 461 J/kg -4.8 K 0 % 0 % 0 % 0 m²/s² 0 0 -2.82 80
03:00 508 J/kg -4.1 K 0 % 0 % 0 % 0 m²/s² 0 0 -2.03 3
04:00 414 J/kg -4.1 K 0 % 0 % 0 % 0 m²/s² 0 0 -2.06 81
05:00 306 J/kg -4.2 K 0 % 0 % 0 % 0 m²/s² 0 0 -2.16 81
06:00 205 J/kg -4.4 K 0 % 0 % 0 % 0 m²/s² 0 0 -2.54 3
07:00 202 J/kg -4.4 K 0 % 0 % 0 % 0 m²/s² 0 0 -2.6 95
08:00 294 J/kg -3.8 K 0 % 0 % 0 % 0 m²/s² 0 0 -1.94 80
09:00 447 J/kg -3.3 K 0 % 0 % 0 % 0 m²/s² 0 0 -1.47 80
10:00 666 J/kg -3.6 K 0 % 0 % 0 % 0 m²/s² 0 0 -1.89 80
11:00 956 J/kg -4.7 K 0 % 0 % 0 % 0 m²/s² 0 0 -2.81 80
12:00 1171 J/kg -5.4 K 0 % 0 % 0 % 0 m²/s² 0 0 -3.51 80
13:00 1125 J/kg -5.4 K 0 % 0 % 0 % 0 m²/s² 0 0 -3.63 95
14:00 1382 J/kg -6.2 K 0 % 0 % 0 % 0 m²/s² 0 0 -4.67 95
15:00 1546 J/kg -6.7 K 0 % 0 % 0 % 0 m²/s² 0 0 -5.11 80
16:00 1446 J/kg -6.6 K 0 % 0 % 0 % 0 m²/s² 0 0 -4.89 80
17:00 1161 J/kg -5.4 K 0 % 0 % 0 % 0 m²/s² 0 0 -3.3 3
18:00 1021 J/kg -4.8 K 0 % 0 % 0 % 0 m²/s² 0 0 -3.09 3
19:00 898 J/kg -3.6 K 0 % 0 % 0 % 0 m²/s² 0 0 -0.96 3
Temp Baro Wind Neerslag
  EWN Forecast EWN WRFDA DWD ICON FMI HIRLAM MET Norway GFSWXSIM
 05:33     21:14    Daglengte: 15:41 Vandaag
20:00 26.5° 1011.3 hPa 1.2 m/s 0.0 mm 27.2° 1010.8 hPa 3.3 m/s 0.6 mm 26.6° 1010.8 hPa 0.4 m/s -1.8 mm 26.1° 1012.4 hPa 1.7 m/s 0.0 mm 25.4° 1011.6 hPa 0.5 m/s 0.0 mm 25.3° 1012.1 hPa 1.4 m/s
23:00 22.2° 1012.3 hPa 1.2 m/s 0.0 mm 23.4° 1011.9 hPa 1.1 m/s 1.7 mm 22.0° 1012.2 hPa 1.5 m/s 0.0 mm 22.4° 1013.6 hPa 1.4 m/s 0.0 mm 20.4° 1012.4 hPa 1.0 m/s 0.0 mm 21.1° 1014.1 hPa 1.6 m/s
 05:33     21:14    Daglengte: 15:41 Morgen
02:00 19.7° 1012.4 hPa 1.5 m/s 0.0 mm 21.1° 1011.9 hPa 1.0 m/s 1.7 mm 19.8° 1012.3 hPa 1.4 m/s 0.0 mm 19.7° 1013.8 hPa 1.7 m/s 0.0 mm 17.8° 1012.4 hPa 1.1 m/s 0.0 mm 19.8° 1014.5 hPa 1.7 m/s
05:00 18.3° 1012.1 hPa 1.3 m/s 0.0 mm 19.4° 1010.7 hPa 1.0 m/s 1.7 mm 18.6° 1011.8 hPa 1.1 m/s 0.0 mm 18.0° 1013.9 hPa 1.8 m/s 0.0 mm 16.3° 1012.2 hPa 1.1 m/s 0.0 mm 18.5° 1013.7 hPa 1.2 m/s
08:00 21.5° 1012.7 hPa 0.7 m/s 0.0 mm 21.0° 1011.9 hPa 1.6 m/s 1.7 mm 21.4° 1012.3 hPa 0.3 m/s 0.0 mm 20.9° 1013.5 hPa 1.3 m/s 0.0 mm 21.6° 1012.9 hPa 0.2 m/s 0.0 mm 21.5° 1014.0 hPa 0.6 m/s
11:00 25.1° 1012.7 hPa 2.1 m/s 0.0 mm 24.1° 1011.7 hPa 1.9 m/s 1.7 mm 25.3° 1012.4 hPa 2.3 m/s 0.0 mm 25.1° 1013.2 hPa 2.3 m/s 0.0 mm 24.7° 1012.8 hPa 1.3 m/s 0.0 mm 25.4° 1013.5 hPa 1.9 m/s
14:00 27.4° 1012.3 hPa 2.4 m/s 0.0 mm 27.1° 1011.8 hPa 2.8 m/s 1.7 mm 27.6° 1012.0 hPa 2.6 m/s 0.0 mm 27.4° 1012.7 hPa 2.9 m/s 0.0 mm 26.3° 1012.6 hPa 1.8 m/s 0.0 mm 27.3° 1013.5 hPa 2.7 m/s
17:00 27.7° 1011.4 hPa 1.9 m/s 0.0 mm 28.6° 1010.4 hPa 4.1 m/s 1.7 mm 27.9° 1010.8 hPa 1.7 m/s 0.0 mm 28.1° 1012.0 hPa 1.9 m/s 0.0 mm 26.9° 1011.9 hPa 0.8 m/s 0.0 mm 27.4° 1012.4 hPa 2.4 m/s
20:00 26.5° 1011.6 hPa 1.0 m/s 0.0 mm 27.2° 1010.6 hPa 2.6 m/s 1.8 mm 26.5° 1011.6 hPa 0.3 m/s 0.0 mm 26.6° 1012.2 hPa 1.3 m/s 0.0 mm 25.5° 1011.9 hPa 0.5 m/s 0.0 mm 23.9° 1013.2 hPa 1.2 m/s
23:00 22.0° 1012.8 hPa 1.6 m/s 0.0 mm 23.5° 1011.9 hPa 1.3 m/s 1.9 mm 21.3° 1012.3 hPa 1.2 m/s 0.0 mm 22.9° 1014.3 hPa 2.3 m/s 0.0 mm 20.0° 1013.3 hPa 1.8 m/s 0.0 mm 20.2° 1014.9 hPa 1.4 m/s
 05:33     21:14    Daglengte: 15:41 Vrijdag 21 Jun
02:00 19.5° 1013.6 hPa 1.3 m/s 0.0 mm 21.8° 1012.3 hPa 0.8 m/s 1.9 mm 19.5° 1013.4 hPa 1.0 m/s 0.0 mm 19.4° 1014.8 hPa 1.3 m/s 0.0 mm 17.4° 1013.9 hPa 1.3 m/s 0.0 mm 19.1° 1015.3 hPa 1.4 m/s
05:00 18.5° 1013.7 hPa 1.5 m/s 0.0 mm 20.1° 1012.1 hPa 0.6 m/s 1.9 mm 18.3° 1013.5 hPa 1.0 m/s 0.0 mm 17.8° 1014.8 hPa 1.7 m/s 0.0 mm 18.0° 1014.0 hPa 1.5 m/s 0.0 mm 18.5° 1015.4 hPa 1.1 m/s
08:00 21.0° 1014.6 hPa 1.2 m/s 0.0 mm 22.3° 1012.8 hPa 1.5 m/s 1.9 mm 20.9° 1014.5 hPa 0.3 m/s 0.0 mm 21.1° 1015.0 hPa 0.9 m/s 0.0 mm 20.2° 1015.6 hPa 1.2 m/s 0.5 mm 21.2° 1016.0 hPa 0.0 m/s
11:00 24.8° 1014.8 hPa 1.8 m/s 0.0 mm 25.5° 1013.5 hPa 2.7 m/s 1.9 mm 23.8° 1015.0 hPa 1.3 m/s 0.8 mm 25.6° 1014.5 hPa 3.2 m/s 0.0 mm 23.8° 1016.1 hPa 0.8 m/s 0.7 mm 25.6° 1015.8 hPa 1.8 m/s
14:00 26.5° 1014.2 hPa 1.7 m/s 0.0 mm 28.1° 1012.7 hPa 2.5 m/s 1.9 mm 25.2° 1014.6 hPa 1.3 m/s 2.1 mm 26.4° 1014.0 hPa 2.1 m/s 0.0 mm 25.5° 1015.0 hPa 0.8 m/s 0.0 mm 27.7° 1015.1 hPa 2.5 m/s
17:00 27.2° 1013.1 hPa 1.6 m/s 0.0 mm 29.0° 1011.1 hPa 3.1 m/s 1.9 mm 26.9° 1013.2 hPa 0.4 m/s 0.1 mm 24.7° 1014.6 hPa 1.5 m/s 1.7 mm 27.5° 1014.3 hPa 2.4 m/s
20:00 25.4° 1013.4 hPa 1.4 m/s 0.0 mm 28.2° 1010.8 hPa 2.0 m/s 1.9 mm 24.6° 1013.8 hPa 1.6 m/s 0.1 mm 23.9° 1014.3 hPa 0.6 m/s 0.0 mm 24.1° 1014.4 hPa 1.0 m/s
23:00 22.0° 1014.1 hPa 1.7 m/s 0.0 mm 24.7° 1011.9 hPa 0.5 m/s 1.9 mm 21.5° 1014.3 hPa 1.3 m/s 0.0 mm 20.0° 1015.2 hPa 1.8 m/s 0.0 mm 19.9° 1016.0 hPa 2.0 m/s
 05:33     21:14    Daglengte: 15:41 Zaterdag 22 Jun
02:00 20.2° 1015.0 hPa 2.5 m/s 1.4 mm 23.3° 1011.5 hPa 4.3 m/s 1.9 mm 19.6° 1015.4 hPa 0.8 m/s 0.9 mm 18.5° 1016.1 hPa 2.8 m/s 2.6 mm 18.9° 1015.9 hPa 2.4 m/s
05:00 18.8° 1014.9 hPa 1.2 m/s 3.2 mm 21.0° 1011.1 hPa 2.1 m/s 1.9 mm 18.2° 1015.9 hPa 0.9 m/s 6.8 mm 17.6° 1015.7 hPa 1.0 m/s 3.0 mm 18.2° 1014.9 hPa 2.0 m/s
08:00 19.2° 1015.6 hPa 1.5 m/s 1.7 mm 22.2° 1011.8 hPa 1.6 m/s 1.9 mm 18.2° 1016.2 hPa 0.8 m/s 2.2 mm 18.5° 1016.3 hPa 2.2 m/s 2.2 mm 19.8° 1015.3 hPa 1.1 m/s
11:00 21.2° 1015.5 hPa 1.5 m/s 1.5 mm 24.9° 1011.7 hPa 2.8 m/s 1.9 mm 18.8° 1016.5 hPa 0.9 m/s 2.0 mm 20.6° 1016.0 hPa 1.4 m/s 23.1° 1014.7 hPa 1.0 m/s
14:00 23.2° 1015.2 hPa 1.4 m/s 5.2 mm 25.9° 1011.4 hPa 4.3 m/s 2.9 mm 19.0° 1017.0 hPa 1.2 m/s 7.3 mm 22.8° 1015.7 hPa 0.7 m/s 25.1° 1014.5 hPa 1.0 m/s
17:00 21.3° 1014.5 hPa 1.1 m/s 5.6 mm 25.0° 1010.1 hPa 2.6 m/s 13.8 mm 20.2° 1014.9 hPa 0.5 m/s 1.6 mm 21.0° 1015.2 hPa 0.9 m/s 24.9° 1013.2 hPa 0.7 m/s
20:00 20.1° 1014.4 hPa 1.3 m/s 7.8 mm 25.0° 1010.6 hPa 2.2 m/s 22.9 mm 19.9° 1015.8 hPa 1.0 m/s 0.3 mm 19.2° 1014.6 hPa 1.2 m/s 23.2° 1013.6 hPa 0.2 m/s
23:00 17.7° 1015.0 hPa 1.2 m/s 24.8 mm 17.6° 1015.0 hPa 1.1 m/s 19.4° 1015.3 hPa 1.8 m/s 24.8 mm
 05:34     21:14    Daglengte: 15:40 Zondag 23 Jun
02:00 16.9° 1015.2 hPa 1.2 m/s 24.8 mm 16.8° 1015.2 hPa 1.1 m/s 18.3° 1015.5 hPa 2.0 m/s 24.8 mm
05:00 17.9° 1015.2 hPa 0.9 m/s 24.8 mm 18.0° 1015.2 hPa 0.9 m/s 17.3° 1015.5 hPa 2.0 m/s 24.8 mm
08:00 19.3° 1015.2 hPa 0.6 m/s 24.8 mm 19.1° 1015.1 hPa 0.6 m/s 21.0° 1015.7 hPa 0.8 m/s 24.8 mm
11:00 22.3° 1015.5 hPa 1.3 m/s 24.8 mm 22.0° 1015.5 hPa 1.3 m/s 25.8° 1015.9 hPa 1.6 m/s 24.8 mm
14:00 25.2° 1015.8 hPa 2.0 m/s 24.8 mm 24.9° 1015.8 hPa 2.0 m/s 28.5° 1015.8 hPa 2.1 m/s 24.8 mm
17:00 25.1° 1015.7 hPa 1.3 m/s 24.8 mm 24.8° 1015.7 hPa 1.2 m/s 28.9° 1015.3 hPa 1.8 m/s 24.8 mm
20:00 24.8° 1015.7 hPa 0.6 m/s 24.8 mm 24.7° 1015.6 hPa 0.5 m/s 25.7° 1016.2 hPa 1.2 m/s 24.8 mm
23:00 21.4° 1017.1 hPa 1.0 m/s 24.8 mm 21.4° 1017.0 hPa 1.0 m/s 21.7° 1019.0 hPa 1.6 m/s 24.8 mm
 05:34     21:15    Daglengte: 15:41 Maandag 24 Jun
02:00 18.3° 1018.4 hPa 1.5 m/s 24.8 mm 18.1° 1018.3 hPa 1.5 m/s 21.0° 1020.0 hPa 2.0 m/s 24.8 mm
05:00 20.4° 1018.9 hPa 1.0 m/s 24.8 mm 20.4° 1018.8 hPa 0.9 m/s 20.1° 1020.1 hPa 1.5 m/s 24.8 mm
08:00 22.7° 1019.3 hPa 0.4 m/s 24.8 mm 22.7° 1019.2 hPa 0.4 m/s 23.1° 1020.4 hPa 0.6 m/s 24.8 mm
11:00 25.0° 1019.4 hPa 1.0 m/s 24.8 mm 24.8° 1019.4 hPa 1.0 m/s 27.4° 1020.0 hPa 1.7 m/s 24.8 mm
14:00 27.1° 1019.5 hPa 1.6 m/s 24.8 mm 26.9° 1019.5 hPa 1.5 m/s 29.9° 1019.2 hPa 2.5 m/s 24.8 mm
17:00 26.8° 1019.3 hPa 1.1 m/s 24.8 mm 26.5° 1019.3 hPa 1.0 m/s 29.8° 1019.0 hPa 2.6 m/s 24.8 mm
20:00 26.3° 1019.2 hPa 0.6 m/s 24.8 mm 26.2° 1019.1 hPa 0.5 m/s 27.0° 1019.9 hPa 1.5 m/s 24.8 mm
23:00 23.2° 1020.6 hPa 1.3 m/s 24.8 mm 23.2° 1020.5 hPa 1.3 m/s 23.2° 1022.3 hPa 1.3 m/s 24.8 mm
 05:34     21:15    Daglengte: 15:41 Dinsdag 25 Jun
02:00 20.4° 1021.9 hPa 2.1 m/s 24.8 mm 20.2° 1021.8 hPa 2.1 m/s 22.2° 1023.0 hPa 1.5 m/s 24.8 mm
05:00 21.9° 1022.0 hPa 1.6 m/s 24.8 mm 21.9° 1022.0 hPa 1.6 m/s 21.7° 1022.2 hPa 1.6 m/s 24.8 mm
08:00 23.8° 1022.1 hPa 1.1 m/s 24.8 mm 23.7° 1022.1 hPa 1.2 m/s 24.8° 1022.4 hPa 0.2 m/s 24.8 mm
11:00 26.3° 1022.0 hPa 1.5 m/s 24.8 mm 26.1° 1022.0 hPa 1.5 m/s 28.5° 1022.0 hPa 1.8 m/s 24.8 mm
14:00 28.7° 1021.8 hPa 1.8 m/s 24.8 mm 28.5° 1021.8 hPa 1.8 m/s 30.6° 1021.3 hPa 2.0 m/s 24.8 mm
17:00 28.1° 1021.4 hPa 1.4 m/s 24.8 mm 27.9° 1021.5 hPa 1.3 m/s 30.7° 1020.5 hPa 2.5 m/s 24.8 mm
20:00 27.3° 1021.1 hPa 0.8 m/s 24.8 mm 27.3° 1021.1 hPa 0.8 m/s 27.8° 1020.9 hPa 1.3 m/s 24.8 mm
23:00 24.4° 1022.3 hPa 0.9 m/s 24.8 mm 24.5° 1022.2 hPa 0.9 m/s 24.1° 1022.9 hPa 1.2 m/s 24.8 mm
 05:35     21:15    Daglengte: 15:40 Woensdag 26 Jun
02:00 21.7° 1023.2 hPa 1.0 m/s 24.8 mm 21.6° 1023.3 hPa 0.9 m/s 23.2° 1022.6 hPa 1.6 m/s 24.8 mm
05:00 23.1° 1023.0 hPa 1.3 m/s 24.8 mm 23.1° 1023.1 hPa 1.2 m/s 22.9° 1021.9 hPa 1.8 m/s 24.8 mm
08:00 24.8° 1022.8 hPa 1.4 m/s 24.8 mm 24.7° 1023.0 hPa 1.5 m/s 26.0° 1021.2 hPa 0.3 m/s 24.8 mm
11:00 27.2° 1022.7 hPa 1.6 m/s 24.8 mm 26.9° 1023.0 hPa 1.6 m/s 30.2° 1020.4 hPa 1.6 m/s 24.8 mm
14:00 29.4° 1022.6 hPa 1.7 m/s 24.8 mm 29.1° 1022.9 hPa 1.7 m/s 32.6° 1019.4 hPa 2.2 m/s 24.8 mm
17:00 28.9° 1021.8 hPa 1.2 m/s 24.8 mm 28.6° 1022.1 hPa 1.1 m/s 31.9° 1018.3 hPa 2.4 m/s 24.8 mm
20:00 28.3° 1021.1 hPa 0.6 m/s 24.8 mm 28.2° 1021.3 hPa 0.5 m/s 29.0° 1018.8 hPa 1.5 m/s 24.8 mm
 05:35     21:15    Daglengte: 15:40 Donderdag 27 Jun
02:00 22.2° 1021.6 hPa 2.0 m/s 25.0 mm 22.0° 1021.8 hPa 2.0 m/s 24.0° 1019.6 hPa 1.7 m/s 25.0 mm
08:00 25.8° 1020.7 hPa 0.7 m/s 25.0 mm 25.7° 1020.9 hPa 0.7 m/s 26.5° 1018.3 hPa 0.2 m/s 25.0 mm
14:00 31.1° 1019.0 hPa 2.4 m/s 25.0 mm 30.9° 1019.3 hPa 2.4 m/s 33.7° 1016.0 hPa 2.2 m/s 25.0 mm
20:00 30.3° 1016.3 hPa 0.3 m/s 25.3 mm 30.3° 1016.4 hPa 0.2 m/s 29.8° 1015.5 hPa 1.0 m/s 25.3 mm
 05:35     21:15    Daglengte: 15:40 Vrijdag 28 Jun
02:00 22.5° 1017.5 hPa 1.7 m/s 25.4 mm 22.3° 1017.5 hPa 1.7 m/s 25.1° 1017.2 hPa 1.9 m/s 25.4 mm
08:00 26.7° 1017.0 hPa 0.8 m/s 25.4 mm 26.7° 1017.2 hPa 0.8 m/s 27.0° 1015.4 hPa 0.5 m/s 25.4 mm
14:00 32.8° 1016.1 hPa 1.5 m/s 25.4 mm 32.6° 1016.4 hPa 1.4 m/s 34.6° 1012.9 hPa 2.6 m/s 25.4 mm
20:00 31.1° 1014.2 hPa 0.3 m/s 26.5 mm 31.2° 1014.3 hPa 0.3 m/s 30.2° 1012.8 hPa 0.5 m/s 26.5 mm
 05:36     21:14    Daglengte: 15:38 Zaterdag 29 Jun
02:00 22.8° 1015.0 hPa 2.1 m/s 29.0 mm 22.7° 1015.0 hPa 2.2 m/s 23.5° 1014.9 hPa 1.6 m/s 29.0 mm
08:00 24.9° 1013.6 hPa 0.3 m/s 29.2 mm 24.9° 1013.6 hPa 0.3 m/s 29.2 mm
14:00 32.7° 1013.9 hPa 1.9 m/s 0.0 mm
20:00 29.9° 1014.1 hPa 1.1 m/s 0.2 mm
 05:37     21:14    Daglengte: 15:37 Zondag 30 Jun
02:00 22.1° 1015.8 hPa 1.3 m/s 0.0 mm
08:00 24.8° 1015.6 hPa 1.2 m/s 0.0 mm
14:00 31.4° 1013.9 hPa 2.0 m/s 0.0 mm
20:00 29.2° 1013.8 hPa 0.9 m/s 0.4 mm
 05:37     21:14    Daglengte: 15:37 Maandag 01 Jul
02:00 21.3° 1015.4 hPa 1.2 m/s 0.4 mm
08:00 23.8° 1014.9 hPa 1.2 m/s 0.3 mm
14:00 30.4° 1013.2 hPa 1.8 m/s 0.4 mm
20:00 28.3° 1013.2 hPa 0.6 m/s 1.0 mm
 05:38     21:14    Daglengte: 15:36 Dinsdag 02 Jul
02:00 20.6° 1014.8 hPa 1.4 m/s 1.3 mm
08:00 22.9° 1014.6 hPa 1.6 m/s 0.3 mm
14:00 29.2° 1012.8 hPa 1.4 m/s 0.6 mm
20:00 27.4° 1013.1 hPa 0.3 m/s 1.1 mm
 05:38     21:14    Daglengte: 15:36 Woensdag 03 Jul
02:00 19.9° 1014.7 hPa 1.8 m/s 1.0 mm
08:00 22.3° 1014.6 hPa 1.7 m/s 0.3 mm
14:00 28.4° 1013.0 hPa 1.7 m/s 1.0 mm
20:00 26.5° 1013.4 hPa 0.9 m/s 1.4 mm
 05:39     21:13    Daglengte: 15:34 Donderdag 04 Jul
02:00 19.4° 1015.2 hPa 1.8 m/s 0.7 mm
08:00 21.9° 1015.5 hPa 1.8 m/s 0.1 mm
14:00 28.9° 1014.6 hPa 1.7 m/s 0.3 mm
FMI Hirlam - 7.5 km EWN WRFDA - 12 km DWD ICON - 7 km GFS - 25 km Basiskaart






























































Updatetijd (Europe/Amsterdam) Resolutie Lengte Stap
FMI Hirlam 19:00, 01:00, 07:00, 13:00 7.5 km 49h 1h
EWN WRFDA 16:00, 22:00, 04:00, 10:00 12 km 73h 1h
DWD ICON 17:45, 23:45, 05:45, 11:45 7 km 75h 1h
GFS 14:30, 20:30, 02:30, 08:30 25 km 237h 3h
30+ mm
25-30 mm
20-25 mm
15-20 mm
10-15 mm
6-10 mm
4-6 mm
2-4 mm
1-2 mm
0.5-1 mm
0.2-0.5 mm
0.1-0.2 mm
30+ mm
25-30 mm
20-25 mm
15-20 mm
10-15 mm
6-10 mm
4-6 mm
2-4 mm
1-2 mm
0.5-1 mm
0.2-0.5 mm
0.1-0.2 mm
Sneeuwval
Natte sneeuw
Hagel
Vorst
30+ mm
25-30 mm
20-25 mm
15-20 mm
10-15 mm
6-10 mm
4-6 mm
2-4 mm
1-2 mm
0.5-1 mm
0.2-0.5 mm